Home   Weather   Le Havre   Past weeks

Flag for France Past Weather in Le Havre, Upper Normandy, France — Yesterday and Last 2 Weeks

Now
61 °F

Passing clouds.


Feels Like: 61 °F
Forecast: 60 / 67 °F
Wind: 9 mph from Northwest

Location: La Heve

Current Time: Jul 23, 2017 at 11:04:16 pm

Latest Report: Jul 23, 2017 at 10:00 pm


Visibility: N/A

Pressure: 29.95 "Hg

Humidity: 83%

Dew Point: 55 °F

Location of Le HavreLocation

Past Weather in Le Havre — Graph

°F

Le Havre Temperature Yesterday

Maximum temperature yesterday: 66 °F (at 12:00 am)
Minimum temperature yesterday: 57 °F (at 7:00 pm)
Average temperature yesterday: 61 °F

High & Low Weather Summary for the Past Weeks

 TemperatureHumidityPressure
High90 °F (Jul 18, 3:30 pm)100% (Jul 9, 5:00 am)30.30 "Hg (Jul 9, 5:00 am)
Low55 °F (Jul 13, 3:30 am)33% (Jul 18, 3:30 pm)29.71 "Hg (Jul 19, 12:00 am)
Average65 °F78%29.99 "Hg
* Reported Jul 8 10:00 pm — Jul 23 10:00 pm, Le Havre. Weather by CustomWeather, © 2017

Note: Actual official high and low records may vary slightly from our data, if they occured in-between our weather recording intervals... More about our weather records

Advertising

Le Havre Weather History for the Previous 24 Hours

Scroll right to see more
 ConditionsComfort  
Time TempWeatherWind HumidityBarometerVisibility
10:00 pm
Sun, Jul 23
61 °FPassing clouds.9 mph83%29.95 "HgN/A
9:30 pm61 °FPassing clouds.10 mph83%29.95 "HgN/A
9:00 pm63 °FPassing clouds.10 mph73%29.95 "HgN/A
8:30 pm63 °FPassing clouds.12 mph73%29.95 "HgN/A
8:00 pm64 °FOvercast.10 mph68%29.95 "HgN/A
7:30 pm64 °FBroken clouds.13 mph73%29.95 "HgN/A
7:00 pm66 °FPartly sunny.13 mph64%29.95 "HgN/A
6:30 pm66 °FPartly sunny.12 mph68%29.95 "HgN/A
6:00 pm64 °FPartly sunny.12 mph68%29.95 "HgN/A
5:30 pm64 °FBroken clouds.14 mph68%29.98 "HgN/A
4:30 pm63 °FBroken clouds.12 mph83%29.98 "HgN/A
4:00 pm63 °FMostly cloudy.13 mph83%29.98 "HgN/A
3:30 pm63 °FMore clouds than sun.12 mph77%29.98 "HgN/A
3:00 pm63 °FPartly sunny.14 mph77%29.98 "HgN/A
2:30 pm63 °FBroken clouds.10 mph83%29.98 "HgN/A
1:30 pm61 °FBroken clouds.16 mph83%29.98 "HgN/A
12:30 pm64 °FBroken clouds.13 mph73%29.98 "HgN/A
12:00 pm64 °FPartly sunny.16 mph73%29.98 "HgN/A
11:30 am61 °FPartly sunny.14 mph83%29.98 "HgN/A
11:00 am63 °FPartly sunny.15 mph77%29.98 "HgN/A
10:30 am61 °FPartly sunny.15 mph83%29.98 "HgN/A
10:00 am61 °FPartly sunny.16 mph83%29.95 "HgN/A
9:30 am61 °FMostly cloudy.20 mph83%29.95 "HgN/A
9:00 am61 °FMostly cloudy.18 mph88%29.95 "HgN/A
8:30 am59 °FMostly cloudy.18 mph88%29.92 "HgN/A
7:30 am59 °FOvercast.23 mph88%29.92 "HgN/A
7:00 am59 °FMostly cloudy.21 mph88%29.92 "HgN/A
6:30 am59 °FOvercast.22 mph88%29.89 "HgN/A
6:00 am59 °FMostly cloudy.22 mph88%29.89 "HgN/A
5:30 am59 °FMostly cloudy.18 mph88%29.89 "HgN/A
4:30 am59 °FMostly cloudy.21 mph88%29.89 "HgN/A
3:30 am59 °FDrizzle. Overcast.21 mph88%29.89 "HgN/A
3:00 am59 °FMostly cloudy.18 mph88%29.89 "HgN/A
2:30 am59 °FMostly cloudy.16 mph88%29.89 "HgN/A
2:00 am59 °FMostly cloudy.18 mph88%29.89 "HgN/A
1:30 am59 °FPartly cloudy.18 mph82%29.89 "HgN/A
1:00 am59 °FPassing clouds.17 mph82%29.89 "HgN/A
12:30 am59 °FPassing clouds.18 mph82%29.89 "HgN/A
12:00 am59 °FPartly cloudy.13 mph82%29.89 "HgN/A
11:30 pm
Sat, Jul 22
57 °FLight rain. Passing clouds.15 mph88%29.89 "HgN/A
Weather by CustomWeather, © 2017

See weather overviewHow to use our weather pages